Vorticity
2 3 3 3 4 5 3 2 2 2 2 4 4 4 4 4 3 3 5 4 4 3 2 2 3 2 3 3 4 4 4 6 6 4 1 -8 5 4 3 3 0 4 -2 1 8
2 2 3 3 3 3 4 5 5 5 5 4 4 4 5 4 5 5 4 4 4 5 7 6 5 7 5 4 4 6 3 8 4 2 1 3 4 5 2 4 3 1 3 -1 3
4 2 3 3 3 3 3 3 3 3 3 3 3 3 4 4 4 4 4 6 6 5 4 5 6 5 6 5 6 5 5 3 3 0 5 2 2 2 1 6 1 1 -2 3 7
3 7 2 4 3 4 3 3 3 3 3 4 3 3 4 4 2 5 5 5 4 5 8 7 6 6 7 6 6 6 7 8 8 2 6 5 2 3 5 6 2 3 -1 1 3
3 1 7 3 4 5 5 4 3 4 3 4 4 4 4 3 5 5 4 7 6 8 7 8 9 7 6 6 6 4 8 5 7 6 6 5 5 4 -1 1 4 -3 -3 -4 5
5 3 4 5 4 2 4 4 4 2 3 4 4 3 4 4 4 5 4 7 7 10 9 8 7 8 9 5 6 6 5 6 7 6 6 6 5 2 7 -2 -1 -0 4 17 11
3 4 4 5 4 5 3 3 4 4 3 3 4 4 3 7 7 5 6 9 8 9 10 8 8 9 8 9 7 8 6 5 8 7 5 4 1 2 -1 -4 1 4 0 16 23
1 3 4 2 4 3 4 4 3 4 3 5 5 4 5 7 7 11 7 8 10 7 7 7 -3 -3 0 5 6 5 5 5 1 4 4 4 2 0 -3 -3 -8 5 11 15 16
8 8 4 3 2 3 4 4 4 5 5 3 5 5 10 9 9 9 8 9 7 6 6 5 8 4 6 7 3 3 3 3 2 5 3 -2 -2 2 0 1 15 12 24 16 16
-0 6 9 10 8 7 5 6 4 3 4 5 4 9 11 7 9 7 6 5 5 4 4 4 4 -1 2 3 2 5 2 2 3 -1 5 2 0 1 2 8 8 24 16 16 7
4 9 3 3 5 6 7 9 9 11 10 10 9 10 9 4 6 4 3 3 3 3 4 5 -2 2 4 4 2 -1 -0 5 5 2 1 0 7 3 4 8 -5 23 28 10 14
4 -13 8 2 -1 4 1 1 5 4 4 6 7 6 6 4 3 4 4 -1 4 9 6 6 7 14 5 2 3 -1 -0 1 2 2 2 2 8 5 4 2 17 15 14 18 1
-1 10 9 10 9 2 7 2 3 1 3 4 4 0 3 4 -8 -2 -7 10 4 -1 -0 -10 -3 -5 -3 1 -0 -5 -4 3 5 1 7 13 18 20 26 25 23 11 20 3 9
2 38 1 15 4 -1 4 6 5 3 8 4 2 -5 -3 2 0 8 7 3 -4 5 21 6 4 2 2 3 8 18 16 12 15 17 13 10 14 21 21 11 9 14 1 2 4
53 8 4 16 0 -4 0 12 11 7 16 3 -1 -0 -7 -2 12 3 7 6 13 -1 -4 -5 8 9 11 13 8 2 10 14 16 16 14 16 15 17 13 14 9 11 -3 7 -3
0 -11 43 25 29 -14 -6 -1 7 8 6 0 4 -4 -0 8 3 6 -1 4 -1 -6 -4 3 21 14 16 16 18 20 27 19 6 11 10 20 17 7 9 4 12 -5 -7 1 4
-9 6 13 -2 23 19 47 27 22 20 18 15 22 17 14 28 18 21 21 11 2 8 19 12 22 15 11 9 8 17 17 14 13 9 9 15 11 5 10 -4 -4 4 4 4 5
11 -9 13 3 -8 21 22 15 9 23 17 23 7 7 26 4 16 9 15 16 22 17 15 21 8 13 17 12 21 12 13 9 20 14 9 4 8 29 19 16 8 5 3 -4 -3
-1 6 16 27 12 -9 17 -26 25 11 5 38 3 -2 3 3 4 15 9 17 10 13 5 25 20 10 12 21 3 18 10 23 13 10 4 6 9 -19 -4 -3 -1 3 3 2 -0
-2 16 -1 -8 20 -11 19 10 11 19 -13 -12 20 23 25 -10 8 14 11 -3 9 15 23 10 3 6 12 15 14 6 7 11 11 6 4 6 4 11 0 20 6 -5 -1 8 12
2 14 29 10 7 22 -4 1 16 -9 -1 25 1 4 9 17 7 2 9 -1 17 10 14 18 18 1 10 6 10 7 3 6 5 6 4 9 1 2 -3 -0 -1 10 14 14 11
0 18 5 1 -15 -13 -10 27 -21 7 2 14 30 25 6 -2 0 7 12 20 13 12 19 24 5 -1 -1 12 6 8 8 -1 -6 -8 -1 1 -1 -2 -1 -0 11 2 -4 -10 1
-20 -9 -28 32 10 -8 29 -13 4 3 11 -1 9 9 5 5 8 33 46 7 19 14 -6 -14 -7 5 6 9 5 2 3 7 8 11 10 1 3 -8 -6 -5 12 -4 26 3 7
-35 -16 42 -9 1 15 31 11 9 3 -0 2 25 5 10 12 7 20 5 20 -2 8 1 8 5 4 2 5 17 18 5 5 -9 -3 7 10 20 -3 -11 10 6 -0 8 -3 -8
13 -17 1 -3 21 23 2 -2 10 20 19 20 20 12 2 11 15 4 5 12 11 30 16 10 5 9 6 5 -4 -10 -4 -1 6 18 10 16 -6 3 1 19 5 5 -0 -1 3
9 2 69 -29 -25 27 51 41 8 -2 8 21 15 3 22 21 6 10 22 8 11 9 12 14 14 16 7 13 -19 2 10 -8 6 -1 3 -1 11 24 5 4 2 2 4 15 19
36 16 9 16 3 13 -14 32 16 21 8 21 19 33 18 5 14 2 17 8 -3 -4 4 13 7 -3 12 -7 3 2 -19 24 18 2 -10 4 6 -5 -3 5 23 18 12 11 15
Height
5797 5803 5809 5814 5819 5823 5828 5832 5835 5839 5842 5845 5848 5850 5853 5856 5858 5860 5863 5866 5867 5869 5870 5871 5872 5874 5875 5876 5878 5878 5880 5882 5883 5883 5878 5875 5879 5874 5878 5876 5873 5872 5871 5868 5867
5787 5794 5800 5806 5811 5816 5820 5824 5828 5832 5836 5839 5842 5844 5847 5850 5852 5854 5858 5859 5862 5863 5864 5865 5866 5869 5869 5870 5871 5873 5874 5877 5877 5875 5874 5871 5873 5872 5869 5873 5867 5864 5863 5864 5858
5777 5784 5792 5797 5802 5807 5812 5816 5820 5824 5829 5832 5835 5838 5840 5843 5845 5850 5851 5853 5855 5857 5858 5860 5860 5861 5863 5863 5866 5867 5869 5869 5872 5868 5870 5869 5866 5866 5863 5871 5864 5862 5857 5855 5857
5767 5773 5781 5789 5794 5799 5803 5808 5812 5817 5821 5825 5828 5831 5833 5836 5837 5844 5845 5847 5848 5850 5852 5853 5855 5855 5856 5857 5858 5859 5862 5863 5865 5862 5864 5863 5861 5861 5859 5865 5859 5859 5856 5853 5849
5756 5764 5770 5778 5785 5790 5794 5800 5804 5809 5814 5817 5820 5824 5826 5829 5831 5838 5837 5839 5841 5843 5845 5846 5848 5848 5850 5852 5851 5852 5856 5854 5856 5857 5858 5856 5855 5855 5857 5856 5851 5851 5851 5848 5844
5746 5754 5761 5766 5774 5780 5785 5790 5795 5801 5806 5809 5812 5815 5818 5823 5824 5829 5829 5832 5833 5836 5837 5839 5840 5841 5844 5843 5844 5847 5846 5849 5850 5851 5850 5849 5848 5848 5854 5849 5844 5843 5846 5840 5836
5734 5743 5750 5757 5763 5769 5775 5780 5786 5791 5796 5800 5803 5805 5810 5817 5816 5818 5820 5824 5826 5828 5830 5831 5833 5836 5835 5838 5837 5840 5838 5842 5845 5845 5842 5842 5838 5841 5844 5841 5838 5834 5833 5834 5828
5723 5732 5739 5747 5752 5759 5764 5770 5775 5781 5786 5790 5793 5796 5802 5807 5806 5810 5812 5815 5818 5819 5821 5823 5826 5829 5830 5830 5832 5831 5832 5834 5840 5837 5837 5832 5832 5834 5833 5832 5830 5826 5823 5824 5821
5711 5720 5728 5735 5741 5747 5754 5759 5765 5770 5774 5778 5782 5786 5794 5798 5799 5801 5805 5809 5810 5811 5814 5814 5818 5820 5821 5823 5824 5826 5825 5826 5827 5830 5829 5826 5820 5822 5825 5825 5823 5821 5819 5814 5814
5700 5709 5716 5723 5728 5736 5743 5748 5752 5759 5762 5769 5772 5780 5782 5790 5792 5793 5795 5799 5802 5804 5806 5809 5809 5809 5812 5816 5817 5818 5815 5814 5817 5823 5820 5817 5814 5812 5810 5810 5814 5812 5810 5808 5808
5688 5697 5704 5711 5716 5725 5732 5739 5743 5746 5752 5759 5762 5767 5770 5777 5785 5786 5788 5790 5793 5795 5798 5800 5797 5800 5807 5808 5808 5807 5806 5807 5811 5812 5808 5806 5804 5804 5805 5807 5807 5804 5803 5802 5801
5675 5683 5691 5698 5706 5715 5721 5727 5731 5731 5737 5744 5751 5758 5763 5766 5775 5777 5779 5781 5783 5786 5788 5787 5789 5795 5796 5795 5795 5794 5794 5798 5800 5799 5797 5795 5792 5793 5794 5799 5797 5797 5795 5795 5794
5660 5669 5678 5688 5694 5701 5712 5718 5713 5718 5723 5737 5743 5746 5754 5751 5760 5765 5769 5770 5774 5777 5777 5778 5785 5781 5784 5784 5783 5783 5783 5786 5783 5784 5782 5780 5780 5780 5784 5788 5788 5788 5788 5788 5788
5647 5657 5665 5675 5683 5692 5699 5702 5697 5709 5709 5721 5728 5736 5739 5744 5743 5753 5756 5759 5762 5765 5768 5767 5773 5771 5771 5767 5767 5769 5773 5774 5772 5770 5769 5770 5765 5775 5776 5776 5777 5779 5782 5782 5782
5635 5645 5655 5666 5675 5685 5694 5686 5688 5696 5692 5708 5714 5717 5725 5729 5737 5740 5747 5743 5752 5758 5754 5756 5758 5758 5757 5760 5757 5757 5758 5759 5756 5761 5761 5760 5759 5766 5764 5766 5767 5768 5776 5775 5775
5629 5637 5643 5647 5658 5670 5670 5668 5673 5675 5678 5688 5689 5704 5711 5720 5727 5725 5731 5737 5739 5737 5738 5743 5746 5746 5746 5746 5744 5747 5749 5749 5747 5751 5749 5753 5755 5757 5757 5756 5756 5758 5763 5765 5764
5620 5627 5632 5640 5652 5657 5653 5650 5654 5651 5676 5681 5682 5689 5696 5705 5712 5715 5720 5718 5724 5726 5726 5732 5731 5732 5733 5734 5733 5735 5736 5736 5739 5740 5744 5749 5748 5748 5747 5746 5748 5751 5751 5751 5751
5609 5616 5622 5630 5633 5638 5638 5635 5631 5651 5660 5669 5673 5674 5680 5685 5693 5699 5704 5708 5709 5712 5715 5712 5716 5721 5726 5722 5725 5724 5726 5728 5731 5734 5738 5739 5739 5741 5738 5737 5739 5740 5739 5739 5743
5599 5604 5608 5615 5620 5625 5623 5613 5625 5642 5656 5663 5663 5662 5666 5669 5678 5683 5689 5692 5697 5700 5700 5701 5702 5704 5708 5711 5711 5715 5716 5722 5723 5724 5725 5728 5731 5733 5732 5730 5729 5729 5729 5730 5732
5584 5588 5593 5601 5607 5610 5604 5601 5622 5639 5643 5648 5647 5653 5656 5662 5663 5668 5672 5681 5684 5686 5688 5690 5690 5692 5697 5699 5702 5703 5710 5710 5711 5713 5714 5720 5724 5727 5726 5717 5716 5719 5722 5721 5721
5568 5570 5580 5589 5593 5587 5585 5596 5616 5625 5631 5631 5638 5644 5650 5650 5651 5655 5661 5667 5671 5671 5676 5680 5682 5684 5685 5688 5690 5695 5697 5698 5700 5702 5702 5709 5715 5718 5714 5711 5709 5710 5706 5704 5705
5549 5556 5568 5576 5574 5572 5576 5586 5606 5610 5614 5618 5624 5631 5636 5638 5642 5645 5651 5653 5658 5662 5663 5668 5670 5671 5675 5679 5681 5684 5685 5686 5686 5693 5693 5693 5701 5710 5712 5705 5694 5697 5698 5699 5695
5535 5545 5554 5562 5553 5558 5567 5581 5590 5595 5600 5606 5617 5619 5624 5624 5634 5637 5640 5638 5643 5649 5652 5652 5654 5660 5663 5667 5667 5666 5671 5675 5675 5676 5678 5680 5688 5698 5697 5692 5687 5681 5686 5683 5679
5520 5531 5541 5543 5548 5554 5559 5566 5575 5584 5587 5596 5603 5603 5609 5615 5621 5625 5626 5631 5631 5633 5636 5638 5643 5646 5652 5660 5661 5656 5658 5661 5662 5658 5663 5663 5670 5685 5680 5674 5671 5668 5669 5662 5662
5500 5517 5529 5531 5538 5547 5551 5557 5563 5568 5573 5583 5585 5590 5597 5603 5608 5610 5618 5618 5622 5625 5627 5627 5630 5634 5639 5642 5642 5642 5644 5647 5645 5646 5643 5654 5649 5663 5665 5659 5653 5651 5648 5643 5649
5493 5504 5515 5521 5528 5534 5539 5544 5550 5556 5562 5566 5575 5582 5586 5590 5595 5599 5602 5604 5608 5613 5614 5613 5615 5620 5623 5628 5626 5624 5628 5631 5630 5632 5629 5629 5630 5639 5641 5642 5637 5630 5626 5625 5628
5486 5496 5505 5509 5519 5525 5531 5538 5543 5547 5550 5557 5565 5570 5573 5575 5580 5582 5587 5590 5593 5598 5600 5600 5603 5605 5607 5614 5608 5603 5620 5619 5617 5618 5617 5612 5616 5619 5618 5619 5618 5613 5609 5611 5611